.
WxDataArchive / Data Records for 2009-08-25
2009-08-24 August 2009 2009-08-26

Data Records for Tuesday, 25 August 2009

Time	Temp	Chill	HIndex	Humid	Dewpt	 Wind 	HiWind	WindDir	Rain 	Barom 
-----	----	-----	------	-----	-----	------	------	-------	-----	----- 
00:00	60.5	60.5	60.5	92	58.2	0	0	---	0.00	30.152 
00:05	60.4	60.4	60.4	92	58.1	0	0	---	0.00	30.152 
00:10	60.2	60.2	60.2	92	57.9	0	0	---	0.00	30.152 
00:15	60.2	60.2	60.2	92	57.9	0	0	---	0.00	30.150 
00:20	60.1	60.1	60.1	92	57.8	0	0	---	0.00	30.150 
00:25	59.9	59.9	59.9	92	57.6	0	0	---	0.00	30.150 
00:30	59.9	59.9	59.9	93	57.9	0	0	---	0.00	30.148 
00:35	59.8	59.8	59.8	93	57.8	0	0	---	0.00	30.148 
00:40	59.6	59.6	59.6	93	57.6	0	0	---	0.00	30.148 
00:45	59.5	59.5	59.5	93	57.5	0	0	---	0.00	30.145 
00:50	59.5	59.5	59.5	93	57.5	0	0	---	0.00	30.145 
00:55	59.3	59.3	59.3	93	57.3	0	0	---	0.00	30.145 
01:00	59.2	59.2	59.2	93	57.2	0	0	---	0.00	30.146 
01:05	59.2	59.2	59.2	93	57.2	0	0	---	0.00	30.146 
01:10	59.0	59.0	59.0	93	57.0	0	0	---	0.00	30.146 
01:15	59.0	59.0	59.0	94	57.3	0	0	---	0.00	30.146 
01:20	58.9	58.9	58.9	94	57.2	0	0	---	0.00	30.146 
01:25	58.9	58.9	58.9	94	57.2	0	0	---	0.00	30.146 
01:30	58.7	58.7	58.7	94	57.0	0	0	---	0.00	30.142 
01:35	58.6	58.6	58.6	94	56.9	0	0	---	0.00	30.142 
01:40	58.6	58.6	58.6	94	56.9	0	0	---	0.00	30.142 
01:45	58.4	58.4	58.4	94	56.7	0	0	---	0.00	30.141 
01:50	58.4	58.4	58.4	94	56.7	0	0	---	0.00	30.141 
01:55	58.3	58.3	58.3	94	56.6	0	0	---	0.00	30.141 
02:00	58.3	58.3	58.3	94	56.6	0	0	---	0.00	30.139 
02:05	58.1	58.1	58.1	94	56.4	0	0	---	0.00	30.139 
02:10	58.1	58.1	58.1	94	56.4	0	0	---	0.00	30.139 
02:15	58.0	58.0	58.0	94	56.3	0	0	---	0.00	30.139 
02:20	57.8	57.8	57.8	94	56.1	0	0	---	0.00	30.139 
02:25	57.6	57.6	57.6	94	55.9	0	0	---	0.00	30.139 
02:30	57.5	57.5	57.5	94	55.8	0	0	---	0.00	30.133 
02:35	57.5	57.5	57.5	95	56.1	0	0	---	0.00	30.133 
02:40	57.5	57.5	57.5	95	56.1	0	0	---	0.00	30.133 
02:45	57.5	57.5	57.5	95	56.1	0	0	---	0.00	30.134 
02:50	57.3	57.3	57.3	95	55.9	0	0	---	0.00	30.134 
02:55	57.3	57.3	57.3	95	55.9	0	0	---	0.00	30.134 
03:00	57.3	57.3	57.3	95	55.9	0	0	---	0.00	30.136 
03:05	57.2	57.2	57.2	95	55.8	0	0	---	0.00	30.136 
03:10	57.2	57.2	57.2	95	55.8	0	0	---	0.00	30.136 
03:15	57.0	57.0	57.0	95	55.6	0	0	---	0.00	30.138 
03:20	57.0	57.0	57.0	95	55.6	0	0	---	0.00	30.138 
03:25	57.0	57.0	57.0	95	55.6	0	0	---	0.00	30.138 
03:30	56.9	56.9	56.9	95	55.5	0	0	---	0.00	30.138 
03:35	56.9	56.9	56.9	95	55.5	0	0	---	0.00	30.138 
03:40	56.7	56.7	56.7	95	55.3	0	0	---	0.00	30.138 
03:45	56.7	56.7	56.7	95	55.3	0	0	---	0.00	30.142 
03:50	56.6	56.6	56.6	95	55.2	0	0	---	0.00	30.142 
03:55	56.6	56.6	56.6	95	55.2	0	0	---	0.00	30.142 
04:00	56.5	56.5	56.5	95	55.1	0	0	---	0.00	30.145 
04:05	56.5	56.5	56.5	95	55.1	0	0	---	0.00	30.145 
04:10	56.3	56.3	56.3	95	54.9	0	0	---	0.00	30.145 
04:15	56.3	56.3	56.3	95	54.9	0	0	---	0.00	30.147 
04:20	56.2	56.2	56.2	95	54.8	0	0	---	0.00	30.147 
04:25	56.2	56.2	56.2	95	54.8	0	0	---	0.00	30.147 
04:30	56.0	56.0	56.0	95	54.6	0	0	---	0.00	30.147 
04:35	56.0	56.0	56.0	96	54.9	0	0	---	0.00	30.147 
04:40	55.9	55.9	55.9	96	54.8	0	0	---	0.00	30.147 
04:45	55.9	55.9	55.9	96	54.8	0	0	---	0.00	30.147 
04:50	55.9	55.9	55.9	96	54.8	0	0	---	0.00	30.147 
04:55	55.9	55.9	55.9	96	54.8	0	0	---	0.00	30.147 
05:00	55.9	55.9	55.9	96	54.8	0	0	---	0.00	30.147 
05:05	55.9	55.9	55.9	96	54.8	0	0	---	0.00	30.147 
05:10	55.7	55.7	55.7	96	54.6	0	0	---	0.00	30.147 
05:15	55.7	55.7	55.7	96	54.6	0	0	---	0.00	30.143 
05:20	55.6	55.6	55.6	96	54.5	0	0	---	0.00	30.143 
05:25	55.6	55.6	55.6	96	54.5	0	0	---	0.00	30.143 
05:30	55.6	55.6	55.6	96	54.5	0	0	---	0.00	30.146 
05:35	55.6	55.6	55.6	96	54.5	0	0	---	0.00	30.146 
05:40	55.4	55.4	55.4	96	54.3	0	0	---	0.00	30.146 
05:45	55.4	55.4	55.4	96	54.3	0	0	---	0.00	30.145 
05:50	55.3	55.3	55.3	96	54.2	0	0	---	0.00	30.145 
05:55	55.3	55.3	55.3	96	54.2	0	0	---	0.00	30.145 
06:00	55.3	55.3	55.3	96	54.2	0	0	---	0.00	30.142 
06:05	55.3	55.3	55.3	96	54.2	0	0	---	0.00	30.142 
06:10	55.3	55.3	55.3	96	54.2	0	0	---	0.00	30.142 
06:15	55.1	55.1	55.1	96	54.0	0	0	---	0.00	30.145 
06:20	55.1	55.1	55.1	96	54.0	0	0	---	0.00	30.145 
06:25	55.1	55.1	55.1	96	54.0	0	0	---	0.00	30.145 
06:30	55.1	55.1	55.1	96	54.0	0	0	---	0.00	30.152 
06:35	55.1	55.1	55.1	96	54.0	0	0	---	0.00	30.152 
06:40	55.1	55.1	55.1	96	54.0	0	0	---	0.00	30.152 
06:45	55.0	55.0	55.0	96	53.9	0	0	---	0.00	30.149 
06:50	55.0	55.0	55.0	96	53.9	0	0	---	0.00	30.149 
06:55	54.8	54.8	54.8	96	53.7	0	0	---	0.00	30.149 
07:00	54.8	54.8	54.8	96	53.7	0	0	---	0.00	30.154 
07:05	54.8	54.8	54.8	96	53.7	0	0	---	0.00	30.154 
07:10	54.8	54.8	54.8	96	53.7	0	0	---	0.00	30.154 
07:15	54.8	54.8	54.8	96	53.7	0	0	---	0.00	30.165 
07:20	54.8	54.8	54.8	96	53.7	0	0	---	0.00	30.165 
07:25	54.8	54.8	54.8	96	53.7	0	0	---	0.00	30.165 
07:30	55.0	55.0	55.0	96	53.9	0	0	---	0.00	30.169 
07:35	55.0	55.0	55.0	96	53.9	0	0	---	0.00	30.169 
07:40	55.1	55.1	55.1	96	54.0	0	0	---	0.00	30.169 
07:45	55.3	55.3	55.3	96	54.2	0	0	---	0.00	30.171 
07:50	55.6	55.6	55.6	96	54.5	0	0	---	0.00	30.171 
07:55	55.9	55.9	55.9	96	54.8	0	0	---	0.00	30.171 
08:00	56.3	56.3	56.3	96	55.2	0	0	---	0.00	30.170 
08:05	56.9	56.9	56.9	96	55.8	0	0	---	0.00	30.170 
08:10	57.6	57.6	57.6	97	56.8	0	0	---	0.00	30.170 
08:15	58.3	58.3	58.3	97	57.5	0	0	---	0.00	30.171 
08:20	59.3	59.3	59.3	97	58.4	0	0	---	0.00	30.171 
08:25	60.4	60.4	60.4	97	59.5	0	0	---	0.00	30.171 
08:30	61.2	61.2	61.2	97	60.3	0	0	---	0.00	30.172 
08:35	61.5	61.5	61.5	97	60.6	0	0	---	0.00	30.172 
08:40	61.8	61.8	61.8	96	60.6	0	0	---	0.00	30.172 
08:45	62.3	62.3	62.3	96	61.1	0	0	---	0.00	30.171 
08:50	62.6	62.6	62.6	96	61.4	0	0	---	0.00	30.171 
08:55	62.9	62.9	62.9	96	61.7	0	0	---	0.00	30.171 
09:00	63.4	63.4	63.4	96	62.2	0	0	---	0.00	30.177 
09:05	64.0	64.0	64.0	96	62.8	0	1	90	0.00	30.177 
09:10	64.5	64.5	64.5	95	63.0	0	0	---	0.00	30.177 
09:15	65.0	65.0	65.0	94	63.2	0	0	---	0.00	30.181 
09:20	65.3	65.3	65.3	93	63.2	0	1	90	0.00	30.181 
09:25	65.8	65.8	65.8	91	63.1	0	0	---	0.00	30.181 
09:30	66.4	66.4	66.4	88	62.7	0	1	90	0.00	30.183 
09:35	66.9	66.9	66.9	86	62.6	0	1	90	0.00	30.183 
09:40	67.8	67.8	67.8	84	62.8	0	1	90	0.00	30.183 
09:45	68.4	68.4	68.4	79	61.6	0	1	90	0.00	30.180 
09:50	69.3	69.3	69.3	79	62.5	0	2	90	0.00	30.180 
09:55	69.8	69.8	69.8	77	62.3	0	1	90	0.00	30.180 
10:00	70.4	70.4	70.4	76	62.5	0	1	90	0.00	30.176 
10:05	70.8	70.8	70.8	73	61.7	0	1	90	0.00	30.176 
10:10	71.1	71.1	71.1	71	61.2	0	1	90	0.00	30.176 
10:15	71.6	71.6	71.6	72	62.1	0	2	90	0.00	30.177 
10:20	72.3	72.3	72.3	72	62.8	0	1	90	0.00	30.177 
10:25	72.7	72.7	72.7	68	61.5	0	2	90	0.00	30.177 
10:30	73.0	73.0	73.0	70	62.6	0	2	90	0.00	30.173 
10:35	73.3	73.3	73.3	66	61.2	0	1	180	0.00	30.173 
10:40	73.7	73.7	73.7	67	62.0	0	0	---	0.00	30.173 
10:45	74.0	74.0	74.0	67	62.3	0	1	180	0.00	30.178 
10:50	74.4	74.4	74.4	65	61.8	0	1	180	0.00	30.178 
10:55	74.7	74.7	74.7	64	61.7	0	2	248	0.00	30.178 
11:00	75.1	75.1	77.2	64	62.1	0	1	248	0.00	30.172 
11:05	75.8	75.8	77.7	65	63.2	0	1	248	0.00	30.172 
11:10	76.5	76.5	78.4	61	62.0	0	2	248	0.00	30.172 
11:15	77.2	77.2	78.9	58	61.3	0	2	248	0.00	30.173 
11:20	77.2	77.2	78.9	58	61.3	0	2	158	0.00	30.173 
11:25	77.4	77.4	79.1	61	62.9	0	2	158	0.00	30.173 
11:30	77.9	77.9	79.6	62	63.8	0	1	158	0.00	30.164 
11:35	78.1	78.1	79.7	59	62.6	0	2	158	0.00	30.164 
11:40	78.3	78.3	79.8	56	61.3	1	3	202	0.00	30.164 
11:45	78.6	78.6	80.0	55	61.1	1	2	90	0.00	30.157 
11:50	78.8	78.8	79.9	52	59.7	1	3	248	0.00	30.157 
11:55	78.6	78.6	80.0	56	61.6	0	2	0	0.00	30.157 
12:00	78.1	78.1	79.8	60	63.1	0	2	270	0.00	30.144 
12:05	77.9	77.9	79.4	55	60.4	1	5	248	0.00	30.144 
12:10	78.3	78.3	79.8	56	61.3	1	4	112	0.00	30.144 
12:15	78.6	78.6	80.0	55	61.1	1	3	112	0.00	30.145 
12:20	78.5	78.5	79.9	56	61.5	1	2	0	0.00	30.145 
12:25	78.5	78.5	80.0	58	62.5	1	4	90	0.00	30.145 
12:30	78.6	78.6	80.1	57	62.1	1	3	68	0.00	30.140 
12:35	78.8	78.8	80.2	56	61.8	1	3	45	0.00	30.140 
12:40	78.8	78.8	80.1	55	61.2	1	3	338	0.00	30.140 
12:45	78.8	78.8	80.1	54	60.7	1	4	90	0.00	30.132 
12:50	79.2	79.2	80.7	57	62.6	0	2	90	0.00	30.132 
12:55	79.2	79.2	80.4	54	61.1	1	2	292	0.00	30.132 
13:00	78.8	78.8	79.9	52	59.7	1	4	68	0.00	30.130 
13:05	79.0	79.0	80.3	55	61.4	1	4	90	0.00	30.130 
13:10	78.6	78.6	80.0	56	61.6	1	3	248	0.00	30.130 
13:15	78.6	78.6	80.0	55	61.1	1	3	248	0.00	30.124 
13:20	78.6	78.6	80.1	57	62.1	1	3	270	0.00	30.124 
13:25	79.0	79.0	80.3	55	61.4	1	3	112	0.00	30.124 
13:30	79.0	79.0	80.5	57	62.4	2	5	90	0.00	30.122 
13:35	79.0	79.0	80.3	55	61.4	1	4	112	0.00	30.122 
13:40	79.2	79.2	80.5	55	61.6	1	4	90	0.00	30.122 
13:45	78.8	78.8	80.1	55	61.2	2	5	90	0.00	30.118 
13:50	78.8	78.8	80.2	56	61.8	1	4	45	0.00	30.118 
13:55	78.8	78.8	80.1	55	61.2	2	5	90	0.00	30.118 
14:00	79.0	79.0	80.3	54	60.9	2	7	90	0.00	30.115 
14:05	79.2	79.2	80.6	56	62.1	1	3	292	0.00	30.115 
14:10	79.6	79.6	80.9	55	62.0	1	4	68	0.00	30.115 
14:15	79.8	79.8	81.2	56	62.7	1	3	22	0.00	30.114 
14:20	79.8	79.8	81.1	55	62.2	1	5	248	0.00	30.114 
14:25	79.8	79.8	81.4	58	63.7	1	2	270	0.00	30.114 
14:30	79.9	79.9	81.1	54	61.7	1	3	292	0.00	30.104 
14:35	80.3	80.3	81.5	54	62.1	1	3	90	0.00	30.104 
14:40	80.1	80.1	81.2	53	61.4	1	4	248	0.00	30.104 
14:45	79.8	79.8	81.0	54	61.7	2	5	90	0.00	30.100 
14:50	79.9	79.9	81.5	58	63.8	1	3	90	0.00	30.100 
14:55	80.3	80.3	81.9	58	64.2	0	3	90	0.00	30.100 
15:00	80.3	80.3	81.6	55	62.6	1	3	270	0.00	30.106 
15:05	80.3	80.3	81.5	54	62.1	1	3	45	0.00	30.106 
15:10	80.5	80.5	82.2	58	64.3	1	3	112	0.00	30.106 
15:15	80.5	80.5	81.9	56	63.3	1	4	248	0.00	30.101 
15:20	80.1	80.1	81.3	54	61.9	1	4	112	0.00	30.101 
15:25	79.9	79.9	81.4	57	63.3	1	3	112	0.00	30.101 
15:30	80.3	80.3	81.8	57	63.7	1	3	315	0.00	30.098 
15:35	80.5	80.5	81.9	56	63.3	1	3	292	0.00	30.098 
15:40	80.7	80.7	82.3	57	64.0	1	4	270	0.00	30.098 
15:45	80.9	80.9	82.3	55	63.2	1	3	112	0.00	30.093 
15:50	80.9	80.9	82.4	56	63.7	1	4	292	0.00	30.093 
15:55	81.1	81.1	82.5	55	63.4	1	3	248	0.00	30.093 
16:00	80.7	80.7	82.0	55	63.0	1	4	270	0.00	30.082 
16:05	80.5	80.5	81.7	54	62.3	1	4	292	0.00	30.082 
16:10	80.1	80.1	81.6	57	63.5	1	4	248	0.00	30.082 
16:15	80.3	80.3	81.6	55	62.6	1	4	112	0.00	30.075 
16:20	80.5	80.5	82.1	57	63.8	1	3	68	0.00	30.075 
16:25	80.5	80.5	82.2	58	64.3	1	4	270	0.00	30.075 
16:30	80.7	80.7	82.2	56	63.5	1	3	135	0.00	30.076 
16:35	80.7	80.7	82.0	55	63.0	1	3	270	0.00	30.076 
16:40	80.9	80.9	82.3	55	63.2	1	3	270	0.00	30.076 
16:45	80.9	80.9	82.1	54	62.7	1	2	270	0.00	30.075 
16:50	80.7	80.7	82.2	56	63.5	1	4	90	0.00	30.075 
16:55	80.7	80.7	82.0	55	63.0	1	2	22	0.00	30.075 
17:00	80.7	80.7	82.2	56	63.5	1	4	225	0.00	30.080 
17:05	80.5	80.5	81.7	54	62.3	1	4	270	0.00	30.080 
17:10	80.5	80.5	81.9	56	63.3	1	2	270	0.00	30.080 
17:15	80.3	80.3	81.6	55	62.6	1	4	248	0.00	30.077 
17:20	80.1	80.1	81.3	54	61.9	1	4	270	0.00	30.077 
17:25	79.9	79.9	81.2	55	62.3	1	3	248	0.00	30.077 
17:30	79.9	79.9	81.3	56	62.8	1	3	248	0.00	30.071 
17:35	80.1	80.1	81.6	57	63.5	1	5	135	0.00	30.071 
17:40	80.1	80.1	81.4	55	62.4	1	3	248	0.00	30.071 
17:45	79.9	79.9	81.3	56	62.8	1	3	248	0.00	30.068 
17:50	79.6	79.6	81.1	57	63.0	0	3	248	0.00	30.068 
17:55	79.4	79.4	80.9	57	62.8	1	3	248	0.00	30.068 
18:00	79.4	79.4	80.9	58	63.3	1	4	90	0.00	30.064 
18:05	79.4	79.4	80.9	58	63.3	0	2	112	0.00	30.064 
18:10	79.2	79.2	80.7	58	63.1	0	2	270	0.00	30.064 
18:15	79.0	79.0	80.5	58	62.9	0	3	270	0.00	30.063 
18:20	79.0	79.0	80.5	57	62.4	1	4	248	0.00	30.063 
18:25	78.8	78.8	80.3	58	62.8	0	3	248	0.00	30.063 
18:30	78.8	78.8	80.3	58	62.8	1	4	248	0.00	30.067 
18:35	78.6	78.6	80.1	58	62.6	1	3	248	0.00	30.067 
18:40	78.5	78.5	80.2	60	63.4	0	1	248	0.00	30.067 
18:45	78.3	78.3	80.0	61	63.7	0	2	248	0.00	30.069 
18:50	78.1	78.1	79.9	62	64.0	0	3	248	0.00	30.069 
18:55	78.1	78.1	79.8	60	63.1	1	3	248	0.00	30.069 
19:00	78.1	78.1	79.8	60	63.1	1	4	248	0.00	30.065 
19:05	77.9	77.9	79.6	61	63.3	1	3	248	0.00	30.065 
19:10	77.9	77.9	79.6	61	63.3	0	2	248	0.00	30.065 
19:15	77.7	77.7	79.4	62	63.6	0	2	248	0.00	30.054 
19:20	77.6	77.6	79.3	61	63.1	0	3	292	0.00	30.054 
19:25	77.4	77.4	79.2	62	63.3	0	3	292	0.00	30.054 
19:30	77.4	77.4	79.2	62	63.3	0	3	248	0.00	30.054 
19:35	77.2	77.2	79.0	63	63.6	0	3	248	0.00	30.054 
19:40	77.0	77.0	78.8	63	63.4	0	1	248	0.00	30.054 
19:45	76.8	76.8	78.6	63	63.2	0	2	248	0.00	30.052 
19:50	76.8	76.8	78.6	64	63.7	0	1	248	0.00	30.052 
19:55	76.7	76.7	78.5	64	63.6	0	1	248	0.00	30.052 
20:00	76.5	76.5	78.3	64	63.4	0	1	248	0.00	30.053 
20:05	76.1	76.1	78.0	64	63.0	0	1	248	0.00	30.053 
20:10	76.0	76.0	77.9	64	62.9	0	1	248	0.00	30.053 
20:15	75.8	75.8	77.7	64	62.7	0	2	248	0.00	30.049 
20:20	75.6	75.6	77.5	65	63.0	0	1	248	0.00	30.049 
20:25	75.3	75.3	77.3	65	62.7	0	0	---	0.00	30.049 
20:30	75.1	75.1	77.1	66	62.9	0	0	---	0.00	30.048 
20:35	74.6	74.6	74.6	67	62.9	0	0	---	0.00	30.048 
20:40	74.2	74.2	74.2	67	62.5	0	0	---	0.00	30.048 
20:45	73.9	73.9	73.9	68	62.7	0	0	---	0.00	30.043 
20:50	73.5	73.5	73.5	69	62.7	0	0	---	0.00	30.043 
20:55	73.2	73.2	73.2	69	62.4	0	0	---	0.00	30.043 
21:00	72.8	72.8	72.8	70	62.4	0	0	---	0.00	30.038 
21:05	72.5	72.5	72.5	70	62.1	0	1	248	0.00	30.038 
21:10	72.3	72.3	72.3	71	62.4	0	1	248	0.00	30.038 
21:15	72.1	72.1	72.1	71	62.2	0	1	248	0.00	30.035 
21:20	72.1	72.1	72.1	71	62.2	0	1	248	0.00	30.035 
21:25	72.1	72.1	72.1	72	62.6	0	1	248	0.00	30.035 
21:30	72.1	72.1	72.1	72	62.6	0	2	248	0.00	30.042 
21:35	72.1	72.1	72.1	72	62.6	0	1	248	0.00	30.042 
21:40	72.0	72.0	72.0	73	62.9	0	1	248	0.00	30.042 
21:45	71.8	71.8	71.8	73	62.7	0	1	248	0.00	30.047 
21:50	71.8	71.8	71.8	73	62.7	0	1	248	0.00	30.047 
21:55	71.6	71.6	71.6	73	62.5	0	0	---	0.00	30.047 
22:00	71.5	71.5	71.5	74	62.8	0	0	---	0.00	30.052 
22:05	71.1	71.1	71.1	75	62.8	0	0	---	0.00	30.052 
22:10	70.9	70.9	70.9	76	62.9	0	0	---	0.00	30.052 
22:15	70.6	70.6	70.6	77	63.0	0	0	---	0.00	30.050 
22:20	70.6	70.6	70.6	77	63.0	0	1	248	0.00	30.050 
22:25	70.6	70.6	70.6	77	63.0	0	0	---	0.00	30.050 
22:30	70.4	70.4	70.4	77	62.8	0	0	---	0.00	30.055 
22:35	70.3	70.3	70.3	77	62.7	0	0	---	0.00	30.055 
22:40	69.9	69.9	69.9	78	62.7	0	0	---	0.00	30.055 
22:45	69.9	69.9	69.9	78	62.7	0	0	---	0.00	30.058 
22:50	69.9	69.9	69.9	79	63.1	0	0	---	0.00	30.058 
22:55	69.8	69.8	69.8	79	63.0	0	0	---	0.00	30.058 
23:00	69.6	69.6	69.6	79	62.8	0	0	---	0.00	30.060 
23:05	69.3	69.3	69.3	79	62.5	0	0	---	0.00	30.060 
23:10	69.1	69.1	69.1	80	62.7	0	0	---	0.00	30.060 
23:15	68.8	68.8	68.8	81	62.7	0	0	---	0.00	30.055 
23:20	68.4	68.4	68.4	81	62.3	0	0	---	0.00	30.055 
23:25	68.1	68.1	68.1	83	62.7	0	0	---	0.00	30.055 
23:30	67.8	67.8	67.8	83	62.4	0	0	---	0.00	30.047 
23:35	67.6	67.6	67.6	84	62.6	0	0	---	0.00	30.047 
23:40	67.4	67.4	67.4	85	62.7	0	0	---	0.00	30.047 
23:45	67.1	67.1	67.1	85	62.4	0	0	---	0.00	30.044 
23:50	66.9	66.9	66.9	86	62.6	0	0	---	0.00	30.044 
23:55	66.8	66.8	66.8	86	62.5	0	0	---	0.00	30.044 

CoCoRaHS
IN-AL-39
A2 Web Hosting
Creative Commons License
GoDaddy
search engine by freefind advanced

loaded 2018-11-16 11:45:25 • last modified 2010-11-18 10:43:29
Privacy PolicyDisclaimer
• wx.awcolley.com is powered by PmWiki v.2002016 •
• all content (unless otherwise noted) © 2018 A W Colley